Pasco, WA

6:33 PM PDT on June 24, 2017 (GMT -0700)
Tri-Cities

Weather History for KPSC - October, 2013

Change the Weather History Date:

Tuesday, October 1, 2013

  Actual Average Record
Temperature  
Mean Temperature 53 °F 58 °F  
Max Temperature 61 °F 73 °F 88 °F (1991)
Min Temperature 45 °F 42 °F 31 °F (2002)
Degree Days  
Heating Degree Days 12 8  
Month to date heating degree days 12 8  
Since 1 July heating degree days 80 119  
Cooling Degree Days 0 0  
Month to date cooling degree days 0 0  
Year to date cooling degree days 995 709  
Growing Degree Days 4 (Base 50)    
Moisture  
Dew Point 41 °F    
Average Humidity 62    
Maximum Humidity 77    
Minimum Humidity 47    
Precipitation  
Precipitation 0.01 in 0.02 in 0.39 in (1951)
Month to date precipitation 0.01 0.02  
Year to date precipitation 4.32 5.90  
Snow  
Snow 0.00 in - - ()
Snow Depth 0.00 in    
Sea Level Pressure  
Sea Level Pressure 30.04 in    
Wind  
Wind Speed 9 mph (SSW)    
Max Wind Speed 23 mph    
Max Gust Speed 31 mph    
Visibility 10 miles    
Events Rain    
T = Trace of Precipitation, MM = Missing Value Source: NWS Daily Summary

Daily Weather History Graph

Daily Weather History Graph

Search for Another Location

Airport or City:

Trip Planner

Search our weather history database for the weather conditions in past years. The results will help you decide how hot, cold, wet, or windy it might be!

Date:

Astronomy

Oct. 01, 2013 Rise Set
Actual Time 6:55 AM PDT 6:35 PM PDT
Civil Twilight 6:25 AM PDT 7:05 PM PDT
Nautical Twilight 5:50 AM PDT 7:40 PM PDT
Astronomical Twilight 5:15 AM PDT 8:15 PM PDT
Moon 3:24 AM PDT (10/1) 4:49 PM PDT (10/1)
Length of Visible Light 12h 40m
Length of Day
11h 40m
Waning Crescent, 11% of the Moon is Illuminated
Oct 1
Waning Crescent
Oct 4
New
Oct 11
First Quarter
Oct 18
Full
Oct 26
Last Quarter

Hourly Weather History & Observations

Time (PDT) Temp. Dew Point Humidity Pressure Visibility Wind Dir Wind Speed Gust Speed Precip Events Conditions
12:53 AM 51.1 °F 41.0 °F 68% 29.97 in 10.0 mi WSW 10.4 mph - N/A   Clear
1:53 AM 51.1 °F 41.0 °F 68% 29.98 in 10.0 mi ENE 3.5 mph - N/A   Scattered Clouds
2:53 AM 51.1 °F 41.0 °F 68% 29.98 in 10.0 mi SE 5.8 mph - N/A   Clear
3:53 AM 52.0 °F 41.0 °F 66% 29.97 in 10.0 mi SE 5.8 mph - N/A   Overcast
4:53 AM 51.1 °F 41.0 °F 68% 29.98 in 10.0 mi SSW 8.1 mph - N/A   Overcast
5:53 AM 48.9 °F 39.9 °F 71% 29.98 in 10.0 mi SSW 4.6 mph - N/A   Scattered Clouds
6:53 AM 48.9 °F 41.0 °F 74% 29.98 in 10.0 mi Calm Calm - N/A   Clear
7:53 AM 51.1 °F 42.1 °F 71% 29.99 in 10.0 mi ENE 4.6 mph - N/A   Scattered Clouds
8:53 AM 54.0 °F 41.0 °F 62% 30.00 in 10.0 mi Calm Calm - N/A   Partly Cloudy
9:53 AM 54.0 °F 42.1 °F 64% 30.01 in 10.0 mi SW 9.2 mph - 0.00 in Rain Light Rain
10:53 AM 57.0 °F 43.0 °F 59% 30.01 in 10.0 mi SW 10.4 mph - 0.01 in   Overcast
11:53 AM 60.1 °F 41.0 °F 49% 30.00 in 10.0 mi SW 13.8 mph 23.0 mph N/A   Mostly Cloudy
12:53 PM 57.9 °F 42.1 °F 56% 30.01 in 10.0 mi WSW 17.3 mph 21.9 mph N/A   Overcast
1:53 PM 59.0 °F 39.0 °F 48% 30.02 in 10.0 mi WSW 18.4 mph 23.0 mph N/A   Overcast
2:53 PM 57.9 °F 39.0 °F 49% 30.03 in 10.0 mi SW 16.1 mph - N/A   Overcast
3:53 PM 57.0 °F 43.0 °F 59% 30.04 in 10.0 mi SW 16.1 mph - N/A   Overcast
4:53 PM 57.9 °F 42.1 °F 56% 30.05 in 10.0 mi SW 17.3 mph 26.5 mph N/A   Mostly Cloudy
5:53 PM 55.9 °F 42.1 °F 60% 30.07 in 10.0 mi SSW 12.7 mph 25.3 mph N/A   Clear
6:53 PM 54.0 °F 39.9 °F 59% 30.09 in 10.0 mi SW 16.1 mph 21.9 mph N/A   Clear
7:53 PM 52.0 °F 39.0 °F 61% 30.11 in 10.0 mi SW 13.8 mph - N/A   Clear
8:53 PM 50.0 °F 39.0 °F 66% 30.12 in 10.0 mi SW 12.7 mph - N/A   Clear
9:53 PM 48.9 °F 39.0 °F 69% 30.14 in 10.0 mi SW 9.2 mph - N/A   Clear
10:53 PM 48.9 °F 39.0 °F 69% 30.16 in 10.0 mi SSW 10.4 mph - N/A   Clear
11:53 PM 48.0 °F 39.9 °F 74% 30.16 in 10.0 mi SSW 6.9 mph - N/A   Clear